CW1852 Weather Reports


Display with metric or nautical units.
time (UTC)temp
F
wind
direction
speed
MPH
gust
MPH
rain 1hr
in
rain 24hr
in
rain mn
in
humidity
%
barometer
mb
20260831001202 71 265 2.0 9.0 0.00 0.00 0.00 69 1013.1
20260831000204 70 268 2.0 6.0 0.00 0.00 0.00 70 1013.1
20260830235202 70 265 2.0 6.0 0.00 0.00 0.00 69 1012.9
20260830234203 70 264 1.0 6.0 0.00 0.00 0.00 70 1012.8
20260830233203 70 264 2.0 7.0 0.00 0.00 0.00 71 1012.9
20260830232203 70 273 1.0 4.0 0.00 0.00 0.00 71 1012.9
20260830231224 70 275 2.0 5.0 0.00 0.00 0.00 72 1012.8
20260830230203 70 277 2.0 5.0 0.00 0.00 0.00 72 1012.8
20260830225202 70 276 2.0 5.0 0.00 0.00 0.00 73 1012.8
20260830224203 70 277 0.0 4.0 0.00 0.00 0.00 74 1012.7
20260830223202 70 277 0.0 2.0 0.00 0.00 0.00 75 1012.8
20260830222224 71 277 1.0 3.0 0.00 0.00 0.00 74 1012.8
20260830221203 71 277 1.0 3.0 0.00 0.00 0.00 73 1013.0
20260830220202 71 277 1.0 4.0 0.00 0.00 0.00 72 1013.0
20260830215203 72 278 1.0 4.0 0.00 0.00 0.00 71 1013.0
20260830214202 72 271 2.0 9.0 0.00 0.00 0.00 71 1013.1
20260830213203 72 257 1.0 7.0 0.00 0.00 0.00 71 1012.9
20260830212203 72 239 1.0 10.0 0.00 0.00 0.00 72 1012.9
20260830211202 72 258 4.0 9.0 0.00 0.00 0.00 71 1012.9
20260830210203 72 235 2.0 4.0 0.00 0.00 0.00 71 1012.9
20260830205203 72 243 3.0 10.0 0.00 0.00 0.00 71 1012.9
20260830204203 72 236 3.0 8.0 0.00 0.00 0.00 72 1013.1
20260830203203 72 273 2.0 9.0 0.00 0.00 0.00 72 1013.1
20260830202202 72 193 4.0 8.0 0.00 0.00 0.00 71 1013.1
20260830201203 72 195 3.0 6.0 0.00 0.00 0.00 74 1013.2
20260830200203 72 245 1.0 7.0 0.00 0.00 0.00 73 1013.2
20260830195203 72 183 4.0 9.0 0.00 0.00 0.00 72 1013.6
20260830194203 73 277 1.0 3.0 0.00 0.00 0.00 73 1013.5
20260830193202 72 278 2.0 4.0 0.00 0.00 0.00 72 1013.6
20260830192203 73 263 4.0 7.0 0.00 0.00 0.00 71 1013.8
20260830191224 74 250 2.0 6.0 0.00 0.00 0.00 71 1014.1
20260830190203 72 260 4.0 9.0 0.00 0.00 0.00 71 1014.2
20260830185203 71 282 3.0 10.0 0.00 0.00 0.00 73 1014.3
20260830184202 70 193 1.0 6.0 0.00 0.00 0.00 77 1014.4
20260830183203 71 189 1.0 4.0 0.00 0.00 0.00 77 1014.7
20260830182203 71 189 1.0 5.0 0.00 0.00 0.00 76 1014.7
20260830181202 71 188 3.0 5.0 0.00 0.00 0.00 75 1014.6
20260830180203 71 188 3.0 5.0 0.00 0.00 0.00 74 1014.9
20260830175203 72 188 2.0 4.0 0.00 0.00 0.00 73 1015.0
20260830174203 72 188 3.0 4.0 0.00 0.00 0.00 72 1014.8
20260830173224 71 188 1.0 3.0 0.00 0.00 0.00 73 1014.8
20260830172203 71 188 1.0 4.0 0.00 0.00 0.00 73 1014.8
20260830171203 71 188 2.0 7.0 0.00 0.00 0.00 73 1014.8
20260830170202 71 189 3.0 8.0 0.00 0.00 0.00 71 1014.8
20260830165224 72 189 3.0 6.0 0.00 0.00 0.00 69 1014.8
20260830164202 73 194 3.0 6.0 0.00 0.00 0.00 66 1015.0
20260830163203 77 193 4.0 7.0 0.00 0.00 0.00 61 1014.9
20260830162202 79 184 5.0 9.0 0.00 0.00 0.00 57 1014.8
20260830161203 79 234 2.0 8.0 0.00 0.00 0.00 59 1014.9
20260830160203 77 252 3.0 7.0 0.00 0.00 0.00 62 1015.1
20260830155202 74 258 2.0 4.0 0.00 0.00 0.00 66 1015.2
20260830154224 73 260 1.0 4.0 0.00 0.00 0.00 70 1015.2
20260830153203 71 260 1.0 4.0 0.00 0.00 0.00 72 1015.4
20260830152202 71 261 1.0 6.0 0.00 0.00 0.00 71 1015.7
20260830151203 72 265 1.0 6.0 0.00 0.00 0.00 69 1015.8
20260830150202 72 268 3.0 6.0 0.00 0.00 0.00 67 1015.8
20260830145203 71 258 3.0 8.0 0.00 0.00 0.00 69 1016.1
20260830144203 70 187 1.0 9.0 0.00 0.00 0.00 71 1016.1
20260830143203 71 191 2.0 7.0 0.00 0.00 0.00 68 1016.1
20260830142203 73 253 2.0 8.0 0.00 0.00 0.00 66 1016.1
20260830141203 74 273 3.0 7.0 0.00 0.00 0.00 62 1016.2
20260830140203 73 245 4.0 9.0 0.00 0.00 0.00 67 1016.3
20260830135203 71 268 3.0 9.0 0.00 0.00 0.00 69 1016.5
20260830134245 69 205 1.0 7.0 0.00 0.00 0.00 74 1016.5
20260830133202 68 236 2.0 7.0 0.00 0.00 0.00 76 1016.5
20260830132203 68 253 2.0 7.0 0.00 0.00 0.00 75 1016.4
20260830131202 68 209 2.0 8.0 0.00 0.00 0.00 74 1016.5
20260830130203 69 186 2.0 7.0 0.00 0.00 0.00 74 1016.5
20260830125203 68 190 2.0 9.0 0.00 0.00 0.00 75 1016.3
20260830124202 68 263 4.0 8.0 0.00 0.00 0.00 74 1016.5
20260830123203 67 290 2.0 9.0 0.00 0.00 0.00 73 1016.4
20260830122224 67 260 4.0 10.0 0.00 0.00 0.00 73 1016.6
20260830121202 66 269 2.0 9.0 0.00 0.00 0.00 75 1017.0
20260830120224 66 257 3.0 8.0 0.00 0.00 0.00 77 1016.8
20260830115202 66 261 1.0 10.0 0.00 0.00 0.00 77 1016.8
20260830114203 64 264 5.0 10.0 0.00 0.00 0.00 79 1016.7
20260830113204 64 257 2.0 11.0 0.00 0.00 0.00 81 1016.8
20260830112202 63 261 4.0 9.0 0.00 0.00 0.00 83 1016.8
20260830111203 63 257 2.0 9.0 0.00 0.00 0.00 84 1016.7
20260830110202 62 262 2.0 11.0 0.00 0.00 0.00 86 1016.8
20260830105203 62 241 1.0 7.0 0.00 0.00 0.00 87 1016.8
20260830104202 61 270 2.0 7.0 0.00 0.00 0.00 88 1017.1
20260830103203 62 266 2.0 7.0 0.00 0.00 0.00 89 1017.2
20260830102203 62 273 2.0 7.0 0.00 0.00 0.00 89 1017.4
20260830101203 62 270 2.0 7.0 0.00 0.00 0.00 89 1017.4
20260830100203 62 262 3.0 9.0 0.00 0.00 0.00 90 1017.4
20260830095202 62 268 2.0 8.0 0.00 0.00 0.00 90 1017.5
20260830094203 61 266 3.0 8.0 0.00 0.00 0.00 92 1017.5
20260830093202 61 258 1.0 4.0 0.00 0.00 0.00 92 1017.4
20260830092203 61 259 1.0 7.0 0.00 0.00 0.00 92 1017.4
20260830091202 61 261 2.0 6.0 0.00 0.00 0.00 92 1017.4
20260830090203 61 261 1.0 3.0 0.00 0.00 0.00 93 1017.5
20260830085203 61 262 1.0 4.0 0.00 0.00 0.00 93 1017.5
20260830084202 61 262 2.0 7.0 0.00 0.00 0.00 93 1017.5
20260830083203 61 263 2.0 7.0 0.00 0.00 0.00 94 1017.4
20260830082223 61 263 1.0 4.0 0.00 0.00 0.00 94 1017.6
20260830081203 61 263 2.0 6.0 0.00 0.00 0.00 94 1017.5
20260830080202 61 263 1.0 4.0 0.00 0.00 0.00 94 1017.5
20260830075245 61 263 1.0 4.0 0.00 0.00 0.00 93 1017.6
20260830074202 62 263 3.0 8.0 0.00 0.00 0.00 93 1017.7
20260830073203 62 263 1.0 4.0 0.00 0.00 0.00 93 1017.6
20260830072202 61 263 1.0 3.0 0.00 0.00 0.00 93 1017.5
20260830071203 61 263 1.0 4.0 0.00 0.00 0.00 93 1017.6
20260830070202 62 263 1.0 6.0 0.00 0.00 0.00 93 1017.7
20260830065203 62 263 1.0 3.0 0.00 0.00 0.00 93 1017.8
20260830064203 62 263 0.0 4.0 0.00 0.00 0.00 94 1017.7
20260830063223 62 263 2.0 6.0 0.00 0.00 0.00 94 1017.8
20260830062203 62 263 1.0 3.0 0.00 0.00 0.00 94 1017.9
20260830061203 61 263 1.0 3.0 0.00 0.00 0.00 94 1017.9
20260830060202 61 263 1.0 2.0 0.00 0.00 0.00 93 1018.0
20260830055225 61 263 1.0 6.0 0.00 0.00 0.00 93 1018.0
20260830054203 62 262 1.0 6.0 0.00 0.00 0.00 93 1018.0
20260830053204 62 266 2.0 6.0 0.00 0.00 0.00 93 1017.9
20260830052224 61 270 1.0 3.0 0.00 0.00 0.00 93 1018.0
20260830051203 61 270 1.0 7.0 0.00 0.00 0.00 93 1018.1
20260830050203 61 262 2.0 4.0 0.00 0.00 0.00 93 1018.3
20260830045202 61 261 3.0 6.0 0.00 0.00 0.00 93 1018.3
20260830044203 61 261 1.0 3.0 0.00 0.00 0.00 93 1018.3
20260830043203 61 261 1.0 6.0 0.00 0.00 0.00 93 1018.4
20260830042203 61 261 1.0 3.0 0.00 0.00 0.00 93 1018.5
20260830041224 61 261 2.0 8.0 0.00 0.00 0.00 92 1018.5
20260830040202 61 268 3.0 8.0 0.00 0.00 0.00 93 1018.6
20260830035224 61 266 2.0 4.0 0.00 0.00 0.00 93 1018.5
20260830034224 61 266 1.0 2.0 0.00 0.00 0.00 91 1018.6
20260830033202 61 266 1.0 3.0 0.00 0.00 0.00 91 1018.5
20260830032203 61 266 0.0 3.0 0.00 0.00 0.00 91 1018.4
20260830031203 61 266 1.0 3.0 0.00 0.00 0.00 90 1018.4
20260830030202 62 266 1.0 7.0 0.00 0.00 0.00 90 1018.5
20260830025203 61 265 1.0 4.0 0.00 0.00 0.00 89 1018.6
20260830024203 61 265 0.0 2.0 0.00 0.00 0.00 88 1018.7
20260830023202 62 265 0.0 2.0 0.00 0.00 0.00 87 1018.6
20260830022224 62 265 1.0 2.0 0.00 0.00 0.00 86 1018.7
20260830021203 62 265 1.0 7.0 0.00 0.00 0.00 86 1018.6
20260830020202 62 265 1.0 4.0 0.00 0.00 0.00 85 1018.6
20260830015224 62 265 2.0 6.0 0.00 0.00 0.00 85 1018.6
20260830014202 62 265 1.0 8.0 0.00 0.00 0.00 84 1018.8
20260830013203 62 260 4.0 9.0 0.00 0.00 0.00 83 1018.9
20260830012224 62 263 3.0 8.0 0.00 0.00 0.00 82 1019.0
20260830011203 62 261 3.0 7.0 0.00 0.00 0.00 82 1019.1
20260830010203 63 261 2.0 7.0 0.00 0.00 0.00 80 1019.0
20260830005203 63 269 3.0 6.0 0.00 0.00 0.00 79 1019.1
20260830004203 63 255 2.0 6.0 0.00 0.00 0.00 80 1019.0
20260830003203 63 259 4.0 8.0 0.00 0.00 0.00 81 1018.9